Back to catalog

HULIANWANG DIGUI-62

AliveCommunicationsPO
NORAD 65168·PAYLOAD·🇨🇳 China

Launched Aug 13, 2025 from Wenchang Space Launch Site

Loading…

Next Passes (next 24 hours)

TLE

FreshSource: Space-Track

Epoch: Sep 14, 2026, 21:31 UTC

1 65168U 25174E   26257.89713026  .00000014  00000-0 -10124-5 0  9992
2 65168  86.4921 221.5251 0002373  78.6177 281.5224 13.24401597 52666

Track HULIANWANG DIGUI-62 in real time with AllMySat

Download on the App Store